Regional Weather Roundup
Issued by NWS Upton, NY

Current Version | Previous Version | Graphics & Text | Print | Product List | Glossary Off
Versions: 1 2 3 4 5 6 7 8 9 10 11 12 13 14 15 16 17 18 19 20 21 22 23 24 25 26 27 28 29 30 31 32 33 34 35 36 37 38 39 40 41 42 43 44 45 46 47 48

000
ASUS41 KOKX 280807
RWROKX

REGIONAL WEATHER ROUNDUP
NATIONAL WEATHER SERVICE NEW YORK NY
400 AM EDT SAT MAR 28 2015

NOTE: "FAIR" INDICATES FEW OR NO CLOUDS BELOW 12,000 FEET WITH NO
SIGNIFICANT WEATHER AND/OR OBSTRUCTIONS TO VISIBILITY.

NYZ071-072-176-178-NJZ106-104-280900-
NEW YORK CITY METRO AREA


CITY           SKY/WX    TMP DP  RH WIND       PRES   REMARKS
CENTRAL PARK   CLOUDY    37  22  54 VRB6G18   29.78F WCI  32
LAGUARDIA APRT CLOUDY    37  22  54 N12G21    29.76S WCI  29
KENNEDY INTL   MOCLDY    38  22  52 N18       29.76F WCI  28
NEWARK/LIBERTY CLOUDY    37  23  56 N15       29.77F WCI  28
BRNX BOT. GARD   N/A    N/A N/A N/A NW5       29.77R
TETERBORO      MOCLDY    37  23  56 N8        29.76F WCI  31
$$

NYZ177-179-078>081-280900-
LONG ISLAND NEW YORK

CITY           SKY/WX    TMP DP  RH WIND       PRES   REMARKS
FARMINGDALE    CLOUDY    37  21  52 N14       29.74F WCI  28
ISLIP          CLOUDY    37  25  61 N10       29.71F WCI  30
SHIRLEY        CLOUDY    37  27  67 N7        29.73F WCI  32
WESTHAMPTON    CLOUDY    36  29  75 N8        29.72F WCI  30
MONTAUK POINT    N/A     38  34  85 N7        29.70F WCI  33
$$

NYZ052-065-067-280900-
HUDSON VALLEY

CITY           SKY/WX    TMP DP  RH WIND       PRES   REMARKS
WHITE PLAINS   MOCLDY    34  21  59 NW17G23   29.73F WCI  23
NEWBURGH       CLOUDY    32  25  74 VRB5      29.78F WCI  27
MONTGOMERY     CLOUDY    33  20  58 NW3       29.77F
POUGHKEEPSIE   CLOUDY    34  21  59 N9        29.78F WCI  27
ALBANY         FLURRIES  30  22  72 NW13      29.83F WCI  20
$$

NJZ001-105-106-008-010-013-015-019>022-104-280900-
NEW JERSEY

CITY           SKY/WX    TMP DP  RH WIND       PRES   REMARKS
NEWARK/LIBERTY CLOUDY    37  23  56 N15       29.77F WCI  28
TETERBORO      MOCLDY    37  23  56 N8        29.76F WCI  31
CALDWELL       PTCLDY    35  20  54 VRB5      29.78F WCI  31
MORRISTOWN     PTCLDY    37  21  52 N6        29.78S WCI  33
SOMERVILLE     MOCLDY    35  20  54 NW14G22   29.76F WCI  26
SUSSEX         PTCLDY    31  18  58 NE6       29.79S WCI  25
ANDOVER          N/A     31  20  63 N8        29.78S WCI  23
TRENTON        MOCLDY    34  23  64 N8        29.77S WCI  27
MILLVILLE      CLOUDY    39  27  62 NW7       29.77S WCI  34
ATLANTIC CITY  CLOUDY    38  26  62 NW10      29.75S WCI  31
WRIGHTSTOWN    CLOUDY    35  26  67 N13       29.75S WCI  27
TOMS RIVER     CLOUDY    37  25  60 N9        29.75S WCI  31
BELMAR         CLOUDY    37  23  56 N9        29.74S WCI  31
$$

PAZ047>061-062-071-280900-
EASTERN PENNSYLVANIA

CITY           SKY/WX    TMP DP  RH WIND       PRES   REMARKS
PHILADELPHIA   MOCLDY    38  25  59 NW17      29.80S WCI  28
ALLENTOWN      MOCLDY    32  20  61 N12       29.81S WCI  23
SCRANTON       CLOUDY    30  17  58 NE12      29.81F WCI  20
$$

CTZ002-004>006-009-010-012-RIZ004-006-007-MAZ004-011-015-280900-
SOUTHERN NEW ENGLAND
 IN CT

CITY           SKY/WX    TMP DP  RH WIND       PRES   REMARKS
BRADLEY INTL   CLOUDY    37  27  67 N6        29.74S WCI  32
HARTFORD       CLOUDY    37  27  67 N8        29.74F WCI  31
DANBURY        CLOUDY    33  22  63 N8        29.76F WCI  26
WTRBRY/OXFORD  CLOUDY    34  21  60 N13G20    29.73F WCI  25
BRIDGEPORT     CLOUDY    37  25  61 N13G21    29.72F WCI  29
MERIDEN        CLOUDY    36  26  67 NW10      29.73F WCI  28
NEW HAVEN      CLOUDY    37  26  64 N13G18    29.71F WCI  29
CHESTER        CLOUDY    36  30  80 N14G20    29.70F WCI  27
GROTON         LGT RAIN  38  33  82 N10       29.70F WCI  31
WILLIMANTIC    CLOUDY    37  30  75 N5        29.72F WCI  33

 IN RI

CITY           SKY/WX    TMP DP  RH WIND       PRES   REMARKS
PROVIDENCE     LGT RAIN  38  34  85 NE10      29.72S WCI  31
BLOCK ISLAND   CLOUDY    37  36  93 E7        29.69F WCI  32
WESTERLY       LGT RAIN  38  34  85 N3        29.71S

 IN MA

CITY           SKY/WX    TMP DP  RH WIND       PRES   REMARKS
BOSTON         CLOUDY    37  33  85 N9        29.73F WCI  30
WORCESTER      CLOUDY    35  28  75 N8        29.69F WCI  29
WESTFIELD      CLOUDY    36  27  69 N6        29.74S WCI  31
PROVINCETOWN   CLOUDY    37  36  93 N5        29.71F WCI  34
NANTUCKET      LGT RAIN  38  35  89 NE12      29.67F WCI  30
$$

ANZ330-335-338-340-345-350-353-355-280900-
COASTAL MARINE OBSERVATIONS


STATION/POSITION TIME  SKY/WX   TEMP    WIND        PRES    VSBY  WAVE
                                AIR SEA DIR/SP/G                  HT/PER
                 (UTC)          (F)     (DEG/KT/KT) (MB)    (MI)  (FT/S)
NY HARB ENTRANCE 0750            39 38  350/ 17/ 21 1006.6          4/11
4S FIRE IS       0703               36                N/A           4/11
20S FIRE ISLAND  0650               38              1006.8          5/11
23SW MTP         0750                                 N/A           7/11
HUDSON CANYON    NOT AVBL
EXECUTION ROCKS  NOT AVBL
WESTERN LI SOUND NOT AVBL
CENTRAL LI SOUND NOT AVBL
EASTERN LI SOUND NOT AVBL
ROBBINS REEF     0706            37     340/ 15/ 20 1006.4
$$


>>>>>>>>>>>>>>>>>>>>>>>>>>>> KEY <<<<<<<<<<<<<<<<<<<<<<<<<<<
>                                                          <
>     SKY/WX - SKY CONDITION/PRESENT WEATHER               <
>     TMP    - TEMPERATURE IN FAHRENHEIT                   <
>     DP     - DEWPOINT IN FAHRENHEIT                      <
>     RH     - RELATIVE HUMIDITY IN PERCENT                <
>     WIND   - DIRECTION AND SPEED IN MPH                  <
>     PRES   - MEAN SEA LEVEL PRESSURE IN INCHES OF HG     <
>     WCI    - WIND CHILL INDEX                            <
>     VSB    - VISIBILITY IN MILES                         <
>     HX     - HEAT INDEX                                  <
>     TC     - TEMPERATURE IN CELSIUS                      <
>     VRB    - VARIABLE WIND DIRECTION                     <
>                                                          <
>>>>>>>>>>>>>>>>>>>>>>>>>>>> KEY <<<<<<<<<<<<<<<<<<<<<<<<<<<




USA.gov is the U.S. government's official web portal to all federal, state and local government web resources and services.